Location: Bayshore Village Mobile Home Park
(26.6945°N, 81.8642°W)
Time: 00:27:52
(UTC+00:00)

Cosmos 2285 Rocket - Pass Details

Date: 17 June 2021
Orbit: 971 x 998 km, 74.0° (Epoch: 05 August)

Event Time Altitude Azimuth Distance (km) Brightness Sun altitude
Rises 01:43:49 0° 198° (SSW) 3,698 6.8 -16.2°
Reaches altitude 10° 01:46:22 10° 199° (SSW) 2,754 6.2 -16.6°
Maximum altitude 01:52:46 77° 285° (WNW) 1,023 4.2 -17.7°
Drops below altitude 10° 01:59:12 10° 12° (NNE) 2,765 6.7 -18.9°
Sets 02:01:46 0° 14° (NNE) 3,715 7.4 -19.3°
